Retour au catalogue

CZ-4 DEB

ActifPO
NORAD 20862·DEBRIS·🇨🇳 China

Lancé Sep 3, 1990 depuis Taiyuan Satellite Launch Center

Loading…

Prochains Passages (prochaines 24 heures)

TLE

FraisSource: Space-Track

Époque: Sep 14, 2026, 18:20 UTC

1 20862U 90081AA  26257.76413825  .00000087  00000-0  13787-3 0  9998
2 20862  98.9276  83.0611 0231158 329.2377  42.7669 13.62178693785384

Suivez CZ-4 DEB en temps réel avec AllMySat

Download on the App Store